Hourly Data Report for July 21, 2021

WINDSOR A
ONTARIO
Current Station Operator: NAVCAN

42°16'34.000" N
82°57'19.000" W
189.60 m
6139530
71538
YQG

Download Data

Hourly Data (July 2021)
Hourly Data Report for July 21, 2021
TIME
LST
Temp Definition
°C
Dew Point Definition
°C
Rel Hum Definition
%
Precip. Amount Definition
mm

Wind Dir Definition
10's deg

Wind Spd Definition
km/h
Visibility Definition
km
Stn Press Definition
kPa
Hmdx Definition


Wind Chill Definition


Weather Definition


00:00 18.6 15.5 82 0.0 1 21 16.1 99.38     LegendNANA
01:00 18.0 15.3 84 0.0 2 17 16.1 99.40     LegendNANA
02:00 18.1 15.1 82 0.0 1 15 16.1 99.42     LegendNANA
03:00 17.9 14.5 80 0.0 35 18 16.1 99.42     LegendNANA
04:00 17.8 14.1 79 0.0 1 21 16.1 99.44     LegendNANA
05:00 17.5 13.9 79 0.0 36 15 16.1 99.48     LegendNANA
06:00 17.1 13.7 80 0.0 35 17 16.1 99.54     LegendNANA
07:00 17.7 13.8 78 0.0 35 21 16.1 99.60     LegendNANA
08:00 18.7 13.9 73 0.0 1 21 16.1 99.63     LegendNANA
09:00 20.3 14.2 67 0.0 1 22 16.1 99.70     LegendNANA
10:00 20.1 13.9 67 0.0 36 21 16.1 99.75     LegendNANA
11:00 21.3 13.8 62 0.0 2 11 16.1 99.79 25   LegendNANA
12:00 21.1 13.9 63 0.0 4 17 16.1 99.80     LegendNANA
13:00 22.9 13.2 54 0.0 2 17 16.1 99.77 26   LegendNANA
14:00 23.2 12.6 51 0.0 4 21 16.1 99.74 26   LegendNANA
15:00 23.6 11.8 47 0.0 6 22 16.1 99.75 26   LegendNANA
16:00 23.4 12.8 51 0.0 4 21 16.1 99.73 26   LegendNANA
17:00 22.9 12.1 50 0.0 6 22 16.1 99.73 25   LegendNANA
18:00 22.3 12.5 54 0.0 7 17 16.1 99.74 25   LegendNANA
19:00 20.7 11.5 55 0.0 6 15 16.1 99.77     LegendNANA
20:00 19.5 11.1 58 0.0 5 21 16.1 99.83     LegendNANA
21:00 17.3 11.6 69 0.0 5 11 16.1 99.92     LegendNANA
22:00 17.1 11.1 67 0.0 4 11 16.1 99.95     LegendNANA
23:00 17.0 10.9 67 0.0 35 8 16.1 99.98     LegendNANA

Notes on Data Quality.

Legend

  • E = Estimated
  • M = Missing
  • NA = Not Available*
  • [empty] = Indicates an unobserved value
Date modified: